sat.trackr.live / text

‹ back to catalog

STARLINK-6231

NORAD 56779 · 2023-078N

PAYLOAD ACTIVE UNKNOWN

§ Identity

Operator
Country
US
Launch date
2023-05-31
Launch site
AFWTR
Launch vehicle
Mass (kg)
RCS (m²)

Purposes: comms

External: N2YO · Heavens-Above · Gunter

§ Orbital elements

Epoch: 2026-05-25T03:09:23.631264Z

Period
96.11 min
Inclination
69.9988°
Eccentricity
0.0003549
Mean motion
14.98320012 rev/d
Perigee alt
569.6 km
Apogee alt
574.6 km
Semi-major
6,950.2 km
B*
6.9083e-5
RAAN
131.7248°
Arg perigee
268.2909°
Mean anomaly
91.7844°
Rev number
16,461

§ Raw data

STARLINK-62311 56779U 23078N   26145.13152351  .00000731  00000+0  69083-4 0  99932 56779  69.9988 131.7248 0003549 268.2909  91.7844 14.98320012164619

JSON: /api/v1/satellites/56779 · /tle

For live sub-satellite position, see the globe view (requires WebGL).

§ Visibility from observer

Set your observer location to see the next 7 days of passes ≥ 10°. The values pass through the URL so the page stays shareable.

No JS? Fill the form by hand. The geolocation button needs JavaScript.